IZ6EGX-13 Weather Reports


time (UTC)temp
C
wind
direction
speed
KPH
gust
KPH
rain 1hr
cm
rain 24hr
cm
rain mn
cm
humidity
%
barometer
mb
20260504050627 18 30 0.0 0.0 0.00 0.00 0.00 47 1017.8
20260504045627 18 167 0.0 0.0 0.00 0.00 0.00 48 1017.7
20260504044627 18 266 0.0 0.0 0.00 0.00 0.00 49 1017.7
20260504043627 17 0 0.0 0.0 0.00 0.00 0.00 50 1017.7
20260504042627 16 0 0.0 0.0 0.00 0.00 0.00 53 1017.9
20260504041627 16 0 0.0 0.0 0.00 0.00 0.00 53 1017.8
20260504040627 17 0 0.0 0.0 0.00 0.00 0.00 53 1017.7
20260504035627 17 30 3.2 11.3 0.00 0.00 0.00 52 1017.7
20260504034627 16 101 0.0 4.8 0.00 0.00 0.00 52 1017.7
20260504033627 17 54 0.0 0.0 0.00 0.00 0.00 52 1017.6
20260504032627 17 302 0.0 0.0 0.00 0.00 0.00 50 1017.6
20260504031627 17 107 0.0 0.0 0.00 0.00 0.00 49 1017.6
20260504030627 18 0 0.0 0.0 0.00 0.00 0.00 48 1017.6
20260504025627 18 38 0.0 0.0 0.00 0.00 0.00 47 1017.6
20260504024627 18 0 0.0 0.0 0.00 0.00 0.00 47 1017.7
20260504023627 18 0 0.0 0.0 0.00 0.00 0.00 48 1017.7
20260504022627 18 0 0.0 0.0 0.00 0.00 0.00 48 1017.7
20260504021627 18 0 0.0 0.0 0.00 0.00 0.00 48 1017.6
20260504020627 18 137 0.0 0.0 0.00 0.00 0.00 49 1017.6
20260504015627 18 300 0.0 0.0 0.00 0.00 0.00 50 1017.6
20260504014627 17 300 0.0 0.0 0.00 0.00 0.00 51 1017.7
20260504013627 17 300 0.0 0.0 0.00 0.00 0.00 51 1017.7
20260504012627 17 300 0.0 0.0 0.00 0.00 0.00 51 1017.6
20260504011627 17 300 0.0 0.0 0.00 0.00 0.00 51 1017.6
20260504010627 17 300 0.0 0.0 0.00 0.00 0.00 50 1017.6
20260504005627 17 252 0.0 0.0 0.00 0.00 0.00 50 1017.6
20260504004627 17 248 1.6 6.4 0.00 0.00 0.00 50 1017.7
20260504003627 17 275 3.2 4.8 0.00 0.00 0.00 51 1017.8
20260504002627 17 268 3.2 8.0 0.00 0.00 0.00 50 1017.8
20260504001627 17 283 1.6 4.8 0.00 0.00 0.00 50 1017.8
20260504000627 17 294 0.0 0.0 0.00 0.00 0.00 49 1017.8
20260503235627 17 241 1.6 3.2 0.00 0.00 0.00 47 1017.8
20260503234627 18 272 4.8 8.0 0.00 0.00 0.00 46 1017.8
20260503233627 17 267 4.8 6.4 0.00 0.00 0.00 47 1017.8
20260503232627 18 265 1.6 6.4 0.00 0.00 0.00 47 1017.8
20260503231627 18 244 0.0 0.0 0.00 0.00 0.00 46 1017.8
20260503230627 17 229 0.0 0.0 0.00 0.00 0.00 45 1017.9
20260503225627 17 267 0.0 0.0 0.00 0.00 0.00 47 1018.0
20260503224627 17 246 0.0 0.0 0.00 0.00 0.00 47 1018.1
20260503223627 17 210 0.0 0.0 0.00 0.00 0.00 46 1018.1
20260503222627 17 235 0.0 0.0 0.00 0.00 0.00 46 1018.1
20260503221627 17 240 0.0 0.0 0.00 0.00 0.00 46 1018.1
20260503220627 17 240 0.0 0.0 0.00 0.00 0.00 47 1018.2
20260503215627 17 241 0.0 0.0 0.00 0.00 0.00 45 1018.1
20260503214627 17 265 0.0 0.0 0.00 0.00 0.00 46 1018.1
20260503213627 17 270 0.0 0.0 0.00 0.00 0.00 47 1018.0
20260503212627 17 270 0.0 0.0 0.00 0.00 0.00 46 1018.0
20260503211627 17 267 0.0 0.0 0.00 0.00 0.00 46 1018.0
20260503210627 17 219 0.0 0.0 0.00 0.00 0.00 44 1018.0
20260503205627 17 210 0.0 0.0 0.00 0.00 0.00 42 1017.9
20260503204627 17 224 0.0 0.0 0.00 0.00 0.00 42 1018.0
20260503203627 17 240 0.0 0.0 0.00 0.00 0.00 44 1018.0
20260503202627 17 246 0.0 0.0 0.00 0.00 0.00 42 1018.0
20260503201627 17 270 0.0 0.0 0.00 0.00 0.00 43 1018.0
20260503200627 17 266 0.0 0.0 0.00 0.00 0.00 45 1018.0
20260503195627 17 257 0.0 0.0 0.00 0.00 0.00 44 1018.1
20260503194627 17 268 0.0 0.0 0.00 0.00 0.00 43 1018.1
20260503193627 17 256 0.0 0.0 0.00 0.00 0.00 45 1018.1
20260503192627 17 270 0.0 0.0 0.00 0.00 0.00 44 1018.0
20260503191627 17 270 0.0 0.0 0.00 0.00 0.00 45 1017.9
20260503190627 17 273 0.0 0.0 0.00 0.00 0.00 44 1017.9
20260503185626 17 227 0.0 0.0 0.00 0.00 0.00 44 1017.9
20260503184627 18 90 0.0 0.0 0.00 0.00 0.00 43 1017.8
20260503183627 18 90 0.0 0.0 0.00 0.00 0.00 42 1017.8
20260503182626 18 90 0.0 0.0 0.00 0.00 0.00 43 1017.7
20260503181627 17 90 0.0 0.0 0.00 0.00 0.00 43 1017.7
20260503180627 18 90 0.0 0.0 0.00 0.00 0.00 43 1017.6
20260503175627 17 90 0.0 0.0 0.00 0.00 0.00 43 1017.6
20260503174626 18 90 0.0 0.0 0.00 0.00 0.00 43 1017.6
20260503173627 18 90 0.0 0.0 0.00 0.00 0.00 45 1017.6
20260503172626 18 90 0.0 0.0 0.00 0.00 0.00 47 1017.6
20260503171626 18 90 0.0 0.0 0.00 0.00 0.00 46 1017.5
20260503170626 19 90 0.0 0.0 0.00 0.00 0.00 45 1017.5
20260503150626 20 92 4.8 9.7 0.00 0.00 0.00 44 1017.6
20260503130626 22 100 6.4 17.7 0.00 0.00 0.00 37 1018.1
20260503110626 21 106 8.0 11.3 0.00 0.00 0.00 36 1019.1
20260503081626 21 164 1.6 6.4 0.00 0.00 0.00 36 1019.9
20260503080626 22 243 0.0 4.8 0.00 0.00 0.00 34 1019.9
20260503072626 21 258 0.0 0.0 0.00 0.00 0.00 40 1020.0
20260503071626 20 266 0.0 0.0 0.00 0.00 0.00 40 1020.1
20260503070626 20 253 0.0 0.0 0.00 0.00 0.00 41 1020.1
20260503054626 17 300 1.6 4.8 0.00 0.00 0.00 39 1020.1
20260503053626 17 294 3.2 4.8 0.00 0.00 0.00 40 1020.2